Overview Statistics Trail Chart Weather Telemetry Raw packets
 

This is the latest recevied weather packets stored in our database for station/object DL4SAV. If no packets are shown the sender has not sent any weather packets the latest 10 day(s).

<< 100 101 102 103 104 105 106 >>
Time Temp. Humidity Pressure Rain* Wind** Luminosity Snow
1787853720 27.78° C 50% 1014.1 hPa 0 mm - - -
1787853420 27.78° C 49% 1014 hPa 0 mm - - -
1787853120 28.33° C 48% 1014 hPa 0 mm - - -
1787852819 28.89° C 48% 1013.9 hPa 0 mm - - -
1787852519 28.89° C 47% 1013.9 hPa 0 mm - - -
1787852219 28.89° C 47% 1014 hPa 0 mm - - -
1787851919 29.44° C 46% 1014 hPa 0 mm - - -
1787851618 29.44° C 46% 1014.2 hPa 0 mm - - -
1787851318 30° C 45% 1014.3 hPa 0 mm - - -
1787851018 30° C 45% 1014.1 hPa 0 mm - - -
1787850718 30.56° C 44% 1014.3 hPa 0 mm - - -
1787850417 31.11° C 43% 1014.2 hPa 0 mm - - -
1787850117 31.67° C 43% 1014.3 hPa 0 mm - - -
1787849817 32.22° C 42% 1014.1 hPa 0 mm - - -
1787849516 32.22° C 42% 1014.1 hPa 0 mm - - -
1787849216 32.78° C 41% 1014.1 hPa 0 mm - - -
1787848916 32.78° C 41% 1014.1 hPa 0 mm - - -
1787848615 32.78° C 41% 1014.2 hPa 0 mm - - -
1787848315 32.78° C 41% 1014.2 hPa 0 mm - - -
1787848015 32.78° C 41% 1014.3 hPa 0 mm - - -
1787847715 33.33° C 41% 1014.4 hPa 0 mm - - -
1787847415 33.89° C 40% 1014.3 hPa 0 mm - - -
1787847114 33.89° C 40% 1014.3 hPa 0 mm - - -
1787846814 33.89° C 40% 1014.4 hPa 0 mm - - -
1787846513 33.33° C 41% 1014.4 hPa 0 mm - - -

* Rain latest hour (hover to see other rain measurements)
** Current wind speed in m/s (hover to see current wind gust speed)